STARLINK-3539

decayed
NORAD ID: 51853 Int'l Des: 2022-022 Owner: SPXS Country: US Constellation: starlink
LEOCIRCULAR
Group

About STARLINK-3539

Description loading...

Altitude History

Altitude vs Time

uPlot chart will show altitude changes over time

Two-Line Element Set

1 51853U 22022B 25176.90041284 .07509766 12277-4 50508-3 0 9993
2 51853 53.2061 65.7490 0013068 246.5949 215.0433 16.40295563184540
Epoch: Jun 25, 2025 • Age: 1980 hours

Current Status

Position data unavailable
Launch Date Mar 3, 2022
Age 3.5 years
Decay Date Jun 26, 2025
Type internet

Technical Details

Classification Payload
Mass 297.00 kg
Dry Mass 275.00 kg
Total Mass 297.00 kg
Length 0.20 m
Diameter 2.80 m
Span 9.00 m
Shape Box + pan
Manufacturer SPXS
Bus Type Starlink
Phase Status Reentered
Owner/State SPXS/US

Large Constellations

Loading constellations...